Weather History for Montreal, QC

Change the Weather History Date:

Thursday, May 15, 2014

  Actual Average Record
Temperature  
Mean Temperature 72 °F -  
Max Temperature 82 °F 63 °F 84 °F (1998)
Min Temperature 63 °F 45 °F 37 °F (2002)
Cooling Degree Days 8    
Growing Degree Days 22 (Base 50)    
Moisture  
Dew Point 60 °F    
Average Humidity 65    
Maximum Humidity 78    
Minimum Humidity 45    
Precipitation  
Precipitation 0.00 in - - ()
Sea Level Pressure  
Sea Level Pressure 30.00 in    
Wind  
Wind Speed 13 mph ()    
Max Wind Speed 28 mph    
Max Gust Speed 39 mph    
Visibility 14.8 miles    
Events      
Averages and records for this station are not official NWS values.
T = Trace of Precipitation, MM = Missing Value Source: Averaged Metar Reports

Daily Weather History Graph

Daily Weather History Graph

Search for Another Location

Airport:

Trip Planner

Search our weather history database for the weather conditions in past years. The results will help you decide how hot, cold, wet, or windy it might be!

Date:

Astronomy

May. 15, 2014 Rise Set
Actual Time 5:24 AM EDT 8:18 PM EDT
Civil Twilight 4:49 AM EDT 8:53 PM EDT
Nautical Twilight 4:05 AM EDT 9:37 PM EDT
Astronomical Twilight 3:13 AM EDT 10:30 PM EDT
Moon 9:23 PM EDT (5/15) 6:10 AM EDT (5/15)
Length of Visible Light 16h 03m
Length of Day
14h 54m
Full, 99% of the Moon is Illuminated
May 15
Full
May 21
Last Quarter
May 28
New
Jun 5
First Quarter
Jun 13
Full

Hourly Weather History & Observations

Time (EDT) Temp. Heat Index Dew Point Humidity Pressure Visibility Wind Dir Wind Speed Gust Speed Precip Events Conditions
12:00 AM 66.2 °F - 59.0 °F 78% 30.07 in 15.0 mi East 3.5 mph - N/A   Mostly Cloudy
1:00 AM 66.2 °F - 59.0 °F 78% 30.06 in 15.0 mi East 6.9 mph - N/A   Mostly Cloudy
2:00 AM 65 °F - 56 °F 65% 30.04 in 15 mi SE 11.5 mph - -   Scattered Clouds
2:00 AM 66.2 °F - 55.4 °F 68% 30.04 in 15.0 mi SE 11.5 mph - N/A   Scattered Clouds
3:00 AM 66.2 °F - 55.4 °F 68% 30.05 in 15.0 mi SSE 10.4 mph - N/A   Overcast
4:00 AM 64.4 °F - 55.4 °F 73% 30.05 in 15.0 mi SSE 11.5 mph - N/A   Mostly Cloudy
5:00 AM 64.4 °F - 55.4 °F 73% 30.05 in 15.0 mi SSE 13.8 mph - N/A   Mostly Cloudy
6:00 AM 64.4 °F - 55.4 °F 73% 30.06 in 10.0 mi SE 15.0 mph - N/A   Overcast
7:00 AM 64.4 °F - 57.2 °F 77% 30.07 in 15.0 mi SSE 12.7 mph - N/A   Scattered Clouds
8:00 AM 67 °F - 59 °F 67% 30.06 in 15 mi SE 13.8 mph - -   Scattered Clouds
8:00 AM 68.0 °F - 59.0 °F 73% 30.06 in 15.0 mi SE 11.5 mph - N/A   Partly Cloudy
9:00 AM 71.6 °F - 59.0 °F 64% 30.06 in 15.0 mi SSE 11.5 mph - N/A   Partly Cloudy
10:00 AM 73.4 °F - 60.8 °F 65% 30.04 in 15.0 mi SE 13.8 mph - N/A   Scattered Clouds
11:00 AM 77.0 °F - 62.6 °F 61% 30.02 in 15.0 mi SSE 16.1 mph - N/A   Scattered Clouds
12:00 PM 78.8 °F - 62.6 °F 57% 30.00 in 15.0 mi SSE 18.4 mph - N/A   Partly Cloudy
1:00 PM 80.6 °F 82.3 °F 64.4 °F 58% 29.98 in 15.0 mi SE 17.3 mph 24.2 mph N/A   Partly Cloudy
2:00 PM 82 °F - 64 °F 45% 29.96 in 15 mi SSE 21.9 mph - -   Scattered Clouds
2:00 PM 82.4 °F 83.9 °F 64.4 °F 54% 29.96 in 15.0 mi SSE 20.7 mph 29.9 mph N/A   Scattered Clouds
3:00 PM 82.4 °F 83.9 °F 64.4 °F 54% 29.93 in 15.0 mi SSE 20.7 mph 29.9 mph N/A   Partly Cloudy
4:00 PM 82.4 °F 83.9 °F 64.4 °F 54% 29.91 in 15.0 mi SSE 21.9 mph 33.4 mph N/A   Mostly Cloudy
5:00 PM 80.6 °F 81.8 °F 62.6 °F 54% 29.90 in 15.0 mi SSE 25.3 mph 39.1 mph N/A   Mostly Cloudy
6:00 PM 78.8 °F - 62.6 °F 57% 29.91 in 15.0 mi SSE 27.6 mph 35.7 mph N/A   Mostly Cloudy
7:00 PM 78.8 °F - 62.6 °F 57% 29.92 in 15.0 mi SSE 26.5 mph 36.8 mph N/A   Mostly Cloudy
8:00 PM 74 °F - 63 °F 59% 29.94 in 15 mi SSE 24.2 mph - -   Mostly Cloudy
8:00 PM 73.4 °F - 62.6 °F 69% 29.94 in 15.0 mi SSE 25.3 mph 32.2 mph N/A   Mostly Cloudy
9:00 PM 71.6 °F - 62.6 °F 73% 29.96 in 15.0 mi SSE 24.2 mph 32.2 mph N/A   Mostly Cloudy
10:00 PM 71.6 °F - 62.6 °F 73% 29.97 in 15.0 mi SSE 20.7 mph 27.6 mph N/A   Partly Cloudy
11:00 PM 71.6 °F - 62.6 °F 73% 29.97 in 15.0 mi SSE 18.4 mph - N/A   Scattered Clouds